Weather in Tavatuy

Russia / Sverdlovsk Oblast     57°04′15″N   60°07′55″E
temp.,
°C
wind,
m/s
gust,
m/s
humid.,
%
clouds,
%
prec.,
mm/h
press.,
hPa
HPBL,
m
3 august, tue
tue323:00+17wsw31077100 0.1 1013215
02:00+16w312885 0.1 1013306
05:00+15w2795100 0.1 1013147
08:00+19w2681100 0.0 1013217
11:00+23w4663100 0.0 1013726
14:00+26wnw4756100 0.1 10131476
17:00+23wnw367274 0.8 1013516
20:00+22w267798 0.0 1012192
4 august, wed
wed423:00+18wnw1192100 0.0 101311
02:00+17ssw11945 0.0 101311
05:00+17s22955 0.0 101417
08:00+21sse127427 0.0 1013202
11:00+28s12475 0.0 1013825
14:00+32ssw12345 0.0 10111915
17:00+32wsw2330100 0.0 10112713
20:00+26e115849 0.0 101027
5 august, thu
thu523:00+22sse367252 0.1 1011178
02:00+18sse22852 0.0 101119
05:00+17wsw118698 0.0 101016
08:00+22ssw2356100 0.0 1009157
11:00+28wsw454277 0.0 1009892
14:00+29wsw463866 0.0 10081310
17:00+29wsw464174 0.0 10081641
20:00+22wnw496262 0.1 1008536
6 august, fri
fri623:00+16wnw31082100 0.1 1010532
02:00+14w4995100 0.0 1010529
05:00+14w4888100 0.0 1010546
08:00+14w4887100 0.0 1010655
11:00+14wnw5986100 0.0 1011647
14:00+15wnw5880100 0.0 1012796
17:00+14wnw4984100 0.1 1012724
20:00+15nw5107985 0.1 1013777
7 august, sat
sat723:00+15nw497498 0.1 1013779
02:00+15nw387488 0.0 1013568
05:00+13wnw3980100 0.0 1014366
08:00+15wnw49686 0.0 1014490
11:00+19nw57470 0.0 10151301
14:00+21nw563859 0.0 10151742
17:00+21nw563889 0.0 10161813
20:00+17nw485578 0.0 1017475